Simultaneous Nadir Overpasses (SNOs) Predictions

Prediction of SNOs between NOAA-20 and AQUA Satellite Orbit:

Table of predicted SNOs for the next 14.0 days since TLE Epoch: 10/9/2018
Index Date (NOAA-20) Time (NOAA-20) Lat,Lon (NOAA-20) SZA (NOAA-20 ) Date (AQUA) Time (AQUA) Lat,Lon (AQUA) SZA (AQUA ) Distance(km) Time Diff (sec)
1 10/11/2018 22:12:50 -75.76, -95.11 76.12 10/11/2018 22:13:35 -75.75, -95.13 76.15 0.79 45
2 10/11/2018 23:03:17 76.53, 74.91 102.99 10/11/2018 23:02:44 76.54, 75.01 103.00 2.68 33
3 10/14/2018 14:29:40 -75.97, 21.37 75.43 10/14/2018 14:29:59 -75.98, 21.41 75.45 1.19 19
4 10/14/2018 15:19:59 77.09,-167.10 103.27 10/14/2018 15:19:01 77.08,-167.19 103.34 2.17 58
5 10/17/2018 05:56:03 75.30, -32.31 106.26 10/17/2018 05:57:13 75.29, -32.32 106.20 0.23 70
6 10/17/2018 06:46:30 -76.18, 137.85 74.73 10/17/2018 06:46:23 -76.19, 137.95 74.75 2.87 7
7 10/19/2018 22:12:51 75.59, 84.38 106.84 10/19/2018 22:13:35 75.60, 84.41 106.79 0.91 44
8 10/19/2018 23:03:11 -76.77,-104.15 74.52 10/19/2018 23:02:39 -76.77,-104.22 74.47 1.74 32
9 10/22/2018 14:29:37 75.93,-158.76 107.37 10/22/2018 14:29:55 75.93,-158.70 107.34 1.76 18




NCC Satellite Simultaneous Nadir Overpasses (SNOs) Prediction Service
